User: anonymous   Login
Location: *
(50.8512°N, 5.6907°E)
Time: 10:08:15
(UTC+00:00)
Language:

Cosmos 1908 - Orbit

View from above orbital plane
View from above orbital plane
View from above satellite
View from above satellite

Ground track
Ground track

The orbit data is extracted from the following two-line orbital elements,

1 18748U 88001A   21209.90602534  .00000528  00000-0  26143-4 0  9993
2 18748  82.4717  15.4637 0014878  93.3887 266.9047 15.15453350832965
Epoch (UTC): 28 July 2021 21:44:40
Eccentricity: 0.0014878
inclination: 82.4717°
perigee height: 509 km
apogee height: 530 km
right ascension of ascending node: 15.4637°
argument of perigee: 93.3887°
revolutions per day: 15.15453350
mean anomaly at epoch: 266.9047°
orbit number at epoch: 83296

The dashed part of the orbit path shows where the satellite is in the earth's shadow,  

DLR